Regional Weather Roundup
Issued by NWS

Home | Current Version | Previous Version | Graphics & Text | Print | Product List | Glossary On
Versions: 1 2 3 4 5 6 7 8 9 10 11 12 13 14 15 16 17 18 19 20 21 22 23 24 25 26 27 28 29 30 31 32 33 34 35 36 37 38 39 40 41 42 43 44 45 46 47 48 49 50
000
ASUS43 KLMK 291410
RWRKY
KENTUCKY REGIONAL WEATHER ROUNDUP
NATIONAL WEATHER SERVICE LOUISVILLE KY
1000 AM EDT SAT AUG 29 2015

NOTE "FAIR" INDICATES FEW OR NO CLOUDS BELOW 12,000 FEET
WITH NO SIGNIFICANT WEATHER AND/OR OBSTRUCTIONS TO VISIBILITY.

KYZ001>023-026-027-061>063-070>075-291500-
WESTERN AND SOUTH CENTRAL KENTUCKY

CITY           SKY/WX    TMP DP  RH WIND       PRES   REMARKS
PADUCAH        PTSUNNY   76  69  79 S7        30.07S
HENDERSON      CLOUDY    73  66  78 SW7       30.08S
OWENSBORO      MOSUNNY   76  70  82 S8        30.11S
HOPKINSVILLE   MOSUNNY   75  68  78 S3        30.11S
BOWLING GREEN  MOSUNNY   78  68  71 S8        30.14S
GLASGOW        PTSUNNY   77  66  70 S7        30.16R
$$

KYZ024-025-028>034-038-045-046-053-291500-
NORTH CENTRAL KENTUCKY

CITY           SKY/WX    TMP DP  RH WIND       PRES   REMARKS
LOUISVILLE/SDF MOSUNNY   76  66  71 SE7       30.13S
LOUISVILLE/LOU SUNNY     76  66  71 S5        30.14F
FORT KNOX      SUNNY     76  67  73 S10       30.13S
$$

KYZ035>037-039>044-047>052-055>060-089>105-291500-
NORTHEAST KENTUCKY

CITY           SKY/WX    TMP DP  RH WIND       PRES   REMARKS
LEXINGTON      SUNNY     76  65  68 S10       30.18S
COVINGTON      NOT AVBL
FRANKFORT      MOSUNNY   75  65  70 S6        30.16S
$$

KYZ054-064>069-076>088-106>120-291500-
SOUTHEAST KENTUCKY

CITY           SKY/WX    TMP DP  RH WIND       PRES   REMARKS
JACKSON        MOSUNNY   73  63  70 CALM      30.23R
LONDON         MOSUNNY   72  62  71 CALM      30.22R
SOMERSET       SUNNY     72  64  78 SE5       30.21S
MIDDLESBORO    MOSUNNY   72  64  76 CALM      30.24S
MONTICELLO     SUNNY     75  68  79 CALM      30.21F
$$



USA.gov is the U.S. government's official web portal to all federal, state and local government web resources and services.